• In Deutschland
  • Länderverzeichnis
  • Für 7 Tage
  • Wassertemperatur
  • Satellitenkarten
  • Wetterkarte
  • Widgets
  • user-avatar
    Anmelden

    Stündliche Wetter Makoua

    Heute, 23 Juli, Montag

    Zeit Temperatur Niederschläge Wind Luftdruck Luftfeuchtigkeit
    00:00 +26°C° 0 mm 1 m/S 727 mmHg 79%
    01:00 +25°C° 0 mm 1 m/S 727 mmHg 81%
    02:00 +25°C° 0 mm 1 m/S 727 mmHg 83%
    03:00 +24°C° 0 mm 1 m/S 726 mmHg 85%
    04:00 +24°C° 0 mm 1 m/S 726 mmHg 87%
    05:00 +24°C° 0 mm 1 m/S 727 mmHg 85%
    06:00 +25°C° 0 mm 1 m/S 727 mmHg 83%
    07:00 +25°C° 0 mm 1 m/S 727 mmHg 81%
    08:00 +28°C° 0 mm 1 m/S 728 mmHg 71%
    09:00 +30°C° 0 mm 1 m/S 728 mmHg 62%
    10:00 +32°C° 0 mm 2 m/S 728 mmHg 52%
    11:00 +33°C° 0,1 mm 1 m/S 728 mmHg 49%
    12:00 +34°C° 0,1 mm 1 m/S 727 mmHg 46%
    13:00 +35°C° 0,1 mm 1 m/S 727 mmHg 42%
    14:00 +34°C° 0,5 mm 1 m/S 726 mmHg 47%
    15:00 +32°C° 0,5 mm 1 m/S 726 mmHg 52%
    16:00 +31°C° 0,5 mm 1 m/S 725 mmHg 57%
    17:00 +30°C° 0,3 mm 1 m/S 726 mmHg 63%
    18:00 +29°C° 0,3 mm 1 m/S 726 mmHg 70%
    19:00 +27°C° 0,3 mm 1 m/S 726 mmHg 76%
    20:00 +27°C° 0,3 mm 1 m/S 727 mmHg 78%
    21:00 +26°C° 0,3 mm 1 m/S 727 mmHg 80%
    22:00 +26°C° 0,3 mm 1 m/S 728 mmHg 82%
    23:00 +25°C° 0,1 mm 1 m/S 728 mmHg 83%

    Morgen, 24 Juli, Dienstag

    Zeit Temperatur Niederschläge Wind Luftdruck Luftfeuchtigkeit
    00:00 +25°C° 0,1 mm 1 m/S 728 mmHg 84%
    01:00 +25°C° 0,1 mm 1 m/S 727 mmHg 86%
    02:00 +24°C° 0 mm 1 m/S 727 mmHg 86%
    03:00 +24°C° 0 mm 1 m/S 727 mmHg 87%
    04:00 +24°C° 0 mm 1 m/S 727 mmHg 88%
    05:00 +24°C° 0 mm 2 m/S 727 mmHg 86%
    06:00 +24°C° 0 mm 2 m/S 727 mmHg 85%
    07:00 +25°C° 0 mm 2 m/S 727 mmHg 84%
    08:00 +27°C° 0 mm 2 m/S 728 mmHg 75%
    09:00 +29°C° 0 mm 2 m/S 729 mmHg 67%
    10:00 +31°C° 0 mm 2 m/S 729 mmHg 58%
    11:00 +32°C° 0 mm 2 m/S 729 mmHg 53%
    12:00 +35°C° 0 mm 2 m/S 728 mmHg 48%
    13:00 +36°C° 0 mm 2 m/S 727 mmHg 42%
    14:00 +35°C° 0 mm 2 m/S 727 mmHg 44%
    15:00 +35°C° 0 mm 2 m/S 726 mmHg 45%
    16:00 +34°C° 0 mm 2 m/S 725 mmHg 47%
    17:00 +32°C° 0 mm 2 m/S 726 mmHg 53%
    18:00 +30°C° 0 mm 2 m/S 726 mmHg 60%
    19:00 +28°C° 0 mm 1 m/S 727 mmHg 67%
    20:00 +28°C° 0 mm 2 m/S 727 mmHg 70%
    21:00 +27°C° 0 mm 2 m/S 728 mmHg 73%
    22:00 +26°C° 0 mm 2 m/S 728 mmHg 77%
    23:00 +26°C° 0 mm 2 m/S 728 mmHg 78%

    übermorgen, 25 Juli, Mittwoch

    Zeit Temperatur Niederschläge Wind Luftdruck Luftfeuchtigkeit
    00:00 +25°C° 0 mm 2 m/S 728 mmHg 80%
    01:00 +25°C° 0 mm 2 m/S 728 mmHg 82%
    02:00 +25°C° 0 mm 2 m/S 727 mmHg 82%
    03:00 +25°C° 0 mm 2 m/S 727 mmHg 83%
    04:00 +24°C° 0 mm 2 m/S 726 mmHg 84%
    05:00 +24°C° 0 mm 2 m/S 727 mmHg 83%
    06:00 +24°C° 0 mm 2 m/S 727 mmHg 81%
    07:00 +24°C° 0 mm 2 m/S 728 mmHg 80%
    08:00 +26°C° 0 mm 2 m/S 728 mmHg 71%
    09:00 +29°C° 0 mm 2 m/S 729 mmHg 61%
    10:00 +31°C° 0 mm 2 m/S 729 mmHg 52%
    11:00 +32°C° 0 mm 2 m/S 729 mmHg 47%
    12:00 +35°C° 0 mm 2 m/S 728 mmHg 42%
    13:00 +37°C° 0 mm 2 m/S 727 mmHg 37%
    14:00 +37°C° 0 mm 2 m/S 727 mmHg 36%
    15:00 +37°C° 0 mm 2 m/S 726 mmHg 35%
    16:00 +37°C° 0 mm 2 m/S 725 mmHg 34%
    17:00 +34°C° 0 mm 1 m/S 726 mmHg 40%
    18:00 +32°C° 0 mm 1 m/S 726 mmHg 46%
    19:00 +30°C° 0 mm 1 m/S 727 mmHg 52%
    20:00 +29°C° 0,4 mm 1 m/S 727 mmHg 59%
    21:00 +28°C° 0,4 mm 2 m/S 728 mmHg 66%
    22:00 +27°C° 0,4 mm 2 m/S 728 mmHg 73%
    23:00 +26°C° 0 mm 2 m/S 728 mmHg 73%

    26 Juli, Donnerstag

    Zeit Temperatur Niederschläge Wind Luftdruck Luftfeuchtigkeit
    00:00 +25°C° 0 mm 2 m/S 728 mmHg 73%
    01:00 +25°C° 0 mm 2 m/S 727 mmHg 73%
    02:00 +24°C° 0 mm 2 m/S 727 mmHg 73%
    03:00 +24°C° 0 mm 1 m/S 727 mmHg 73%
    04:00 +23°C° 0 mm 1 m/S 727 mmHg 73%
    05:00 +24°C° 0 mm 2 m/S 727 mmHg 71%
    06:00 +24°C° 0 mm 2 m/S 728 mmHg 69%
    07:00 +24°C° 0 mm 2 m/S 728 mmHg 67%
    08:00 +26°C° 0 mm 2 m/S 729 mmHg 60%
    09:00 +28°C° 0 mm 2 m/S 729 mmHg 53%
    10:00 +30°C° 0 mm 2 m/S 729 mmHg 45%
    11:00 +32°C° 0 mm 2 m/S 729 mmHg 42%
    12:00 +34°C° 0 mm 2 m/S 728 mmHg 38%
    13:00 +36°C° 0 mm 2 m/S 727 mmHg 35%
    14:00 +36°C° 0 mm 2 m/S 727 mmHg 35%
    15:00 +35°C° 0 mm 2 m/S 727 mmHg 36%
    16:00 +35°C° 0 mm 2 m/S 726 mmHg 36%
    17:00 +32°C° 0 mm 2 m/S 726 mmHg 43%
    18:00 +30°C° 0 mm 2 m/S 727 mmHg 50%
    19:00 +28°C° 0 mm 1 m/S 727 mmHg 57%
    20:00 +28°C° 0 mm 1 m/S 728 mmHg 58%
    21:00 +27°C° 0 mm 2 m/S 728 mmHg 60%
    22:00 +27°C° 0 mm 2 m/S 729 mmHg 61%
    23:00 +27°C° 0 mm 2 m/S 729 mmHg 61%

    27 Juli, Freitag

    Zeit Temperatur Niederschläge Wind Luftdruck Luftfeuchtigkeit
    00:00 +27°C° 0 mm 2 m/S 728 mmHg 60%
    01:00 +26°C° 0 mm 2 m/S 728 mmHg 59%
    02:00 +26°C° 0 mm 2 m/S 728 mmHg 61%
    03:00 +25°C° 0 mm 2 m/S 728 mmHg 63%
    04:00 +25°C° 0 mm 2 m/S 727 mmHg 65%
    05:00 +25°C° 0 mm 2 m/S 728 mmHg 65%
    06:00 +25°C° 0 mm 2 m/S 728 mmHg 65%
    07:00 +25°C° 0 mm 2 m/S 728 mmHg 65%
    08:00 +26°C° 0 mm 2 m/S 729 mmHg 60%
    09:00 +28°C° 0 mm 2 m/S 729 mmHg 54%
    10:00 +30°C° 0 mm 2 m/S 730 mmHg 48%
    11:00 +31°C° 0 mm 2 m/S 729 mmHg 44%
    12:00 +34°C° 0 mm 2 m/S 728 mmHg 39%
    13:00 +35°C° 0 mm 2 m/S 728 mmHg 35%
    14:00 +35°C° 0 mm 2 m/S 727 mmHg 35%
    15:00 +35°C° 0 mm 2 m/S 727 mmHg 35%
    16:00 +35°C° 0 mm 2 m/S 726 mmHg 36%
    17:00 +32°C° 0 mm 1 m/S 726 mmHg 42%
    18:00 +30°C° 0 mm 1 m/S 727 mmHg 49%
    19:00 +28°C° 0 mm 1 m/S 727 mmHg 55%
    20:00 +28°C° 0 mm 1 m/S 728 mmHg 58%
    21:00 +27°C° 0 mm 1 m/S 728 mmHg 61%
    22:00 +26°C° 0 mm 1 m/S 729 mmHg 64%
    23:00 +26°C° 0 mm 1 m/S 728 mmHg 65%

    28 Juli, Samstag

    Zeit Temperatur Niederschläge Wind Luftdruck Luftfeuchtigkeit
    00:00 +26°C° 0 mm 1 m/S 728 mmHg 66%
    01:00 +26°C° 0 mm 1 m/S 728 mmHg 67%
    02:00 +25°C° 0 mm 1 m/S 727 mmHg 68%
    03:00 +25°C° 0 mm 1 m/S 727 mmHg 69%
    04:00 +25°C° 0 mm 1 m/S 727 mmHg 69%
    05:00 +25°C° 0 mm 1 m/S 727 mmHg 68%
    06:00 +25°C° 0 mm 2 m/S 728 mmHg 66%
    07:00 +25°C° 0 mm 2 m/S 728 mmHg 64%
    08:00 +27°C° 0 mm 2 m/S 729 mmHg 58%
    09:00 +29°C° 0 mm 2 m/S 729 mmHg 52%
    10:00 +30°C° 0 mm 2 m/S 729 mmHg 45%
    11:00 +32°C° 0 mm 2 m/S 728 mmHg 41%
    12:00 +35°C° 0 mm 2 m/S 728 mmHg 37%
    13:00 +36°C° 0 mm 2 m/S 727 mmHg 33%
    14:00 +36°C° 0 mm 2 m/S 727 mmHg 32%
    15:00 +36°C° 0 mm 2 m/S 726 mmHg 32%
    16:00 +36°C° 0 mm 2 m/S 725 mmHg 32%
    17:00 +34°C° 0 mm 2 m/S 726 mmHg 38%
    18:00 +31°C° 0 mm 1 m/S 726 mmHg 44%
    19:00 +29°C° 0 mm 1 m/S 727 mmHg 50%
    20:00 +28°C° 0 mm 1 m/S 727 mmHg 53%
    21:00 +28°C° 0 mm 1 m/S 727 mmHg 56%
    22:00 +27°C° 0 mm 2 m/S 728 mmHg 59%
    23:00 +27°C° 0 mm 2 m/S 728 mmHg 58%
    Mehr zeigen